Terug naar catalogus

STARLINK-2346

ActiefCommunicatieVLEO
NORAD 47887·PAYLOAD·🇺🇸 United States

Gelanceerd Mar 14, 2021 vanaf Cape Canaveral Space Force Station

Loading…

Volgende Passages (komende 24 uur)

TLE

VersSource: CelesTrak SupGP

Epoch: Sep 14, 2026, 21:50 UTC

1 47887C 21021AD  26257.91020833 -.00011294  00000+0 -36327-3 0  2577
2 47887  53.1573 120.3904 0001251  80.5625   0.5257 15.31700619    17

Volg STARLINK-2346 in realtime met AllMySat

Download on the App Store